When you browse on this site, cookies collect data to enhance your experience and personalize the content and advertising you see.
Visit our Privacy Policy to learn more. By continuing to use the site, you agree to this use of cookies and data.
  • In Italy
  • List of Countries
  • For 7 days
  • Water Temperature
  • Satellite Maps
  • Weather Map
  • Weather Widgets
  • user-avatar
    Login

    Hourly Weather Polotsk

    Today, 22 March, Friday

    Time Temperature Precipitation Wind Pressure Humidity
    00:00 +5°C° 0.5 mm 5 mps 749 mmHg 88%
    01:00 +5°C° 0.5 mm 6 mps 748 mmHg 88%
    02:00 +6°C° 0 mm 5 mps 747 mmHg 89%
    03:00 +5°C° 0.1 mm 6 mps 747 mmHg 88%
    04:00 +5°C° 0.1 mm 6 mps 747 mmHg 87%
    05:00 +5°C° 0.1 mm 7 mps 747 mmHg 86%
    06:00 +5°C° 0 mm 7 mps 748 mmHg 81%
    07:00 +4°C° 0 mm 8 mps 749 mmHg 76%
    08:00 +2°C° 0 mm 8 mps 749 mmHg 68%
    09:00 +2°C° 0 mm 8 mps 750 mmHg 60%
    10:00 +2°C° 0 mm 9 mps 751 mmHg 53%
    11:00 +2°C° 0 mm 9 mps 751 mmHg 45%
    12:00 +3°C° 0 mm 9 mps 752 mmHg 43%
    13:00 +3°C° 0 mm 9 mps 752 mmHg 41%
    14:00 +5°C° 0 mm 8 mps 752 mmHg 39%
    15:00 +5°C° 0 mm 8 mps 752 mmHg 40%
    16:00 +4°C° 0 mm 8 mps 752 mmHg 40%
    17:00 +4°C° 0 mm 7 mps 753 mmHg 41%
    18:00 +3°C° 0 mm 7 mps 753 mmHg 46%
    19:00 +2°C° 0 mm 6 mps 753 mmHg 50%
    20:00 +1°C° 0 mm 5 mps 754 mmHg 55%
    21:00 0°C° 0 mm 5 mps 754 mmHg 57%
    22:00 -1°C° 0 mm 5 mps 754 mmHg 60%
    23:00 -1°C° 0 mm 4 mps 755 mmHg 63%

    Tomorrow, 23 March, Saturday

    Time Temperature Precipitation Wind Pressure Humidity
    00:00 -1°C° 0 mm 4 mps 755 mmHg 65%
    01:00 -2°C° 0 mm 4 mps 755 mmHg 68%
    02:00 -2°C° 0 mm 4 mps 755 mmHg 70%
    03:00 -2°C° 0 mm 4 mps 755 mmHg 72%
    04:00 -3°C° 0 mm 4 mps 756 mmHg 74%
    05:00 -3°C° 0 mm 4 mps 756 mmHg 75%
    06:00 -1°C° 0 mm 3 mps 756 mmHg 74%
    07:00 -1°C° 0 mm 3 mps 756 mmHg 72%
    08:00 -1°C° 0 mm 3 mps 756 mmHg 71%
    09:00 +2°C° 0 mm 2 mps 756 mmHg 64%
    10:00 +3°C° 0 mm 2 mps 756 mmHg 58%
    11:00 +5°C° 0 mm 2 mps 755 mmHg 52%
    12:00 +6°C° 0 mm 2 mps 755 mmHg 47%
    13:00 +7°C° 0 mm 2 mps 755 mmHg 42%
    14:00 +8°C° 0 mm 2 mps 754 mmHg 38%
    15:00 +8°C° 0 mm 2 mps 754 mmHg 40%
    16:00 +8°C° 0 mm 2 mps 753 mmHg 41%
    17:00 +7°C° 0 mm 2 mps 753 mmHg 43%
    18:00 +6°C° 0 mm 2 mps 752 mmHg 47%
    19:00 +4°C° 0 mm 3 mps 752 mmHg 50%
    20:00 +3°C° 0 mm 3 mps 751 mmHg 54%
    21:00 +3°C° 0.2 mm 3 mps 751 mmHg 56%
    22:00 +3°C° 0.2 mm 4 mps 750 mmHg 57%
    23:00 +4°C° 0.2 mm 4 mps 749 mmHg 59%

    Day after tomorrow, 24 March, Sunday

    Time Temperature Precipitation Wind Pressure Humidity
    00:00 +4°C° 0.5 mm 4 mps 749 mmHg 67%
    01:00 +4°C° 0.5 mm 4 mps 749 mmHg 76%
    02:00 +4°C° 0.5 mm 4 mps 748 mmHg 85%
    03:00 +3°C° 0 mm 4 mps 748 mmHg 85%
    04:00 +1°C° 0 mm 4 mps 748 mmHg 86%
    05:00 +1°C° 0 mm 4 mps 748 mmHg 86%
    06:00 +1°C° 0 mm 4 mps 748 mmHg 83%
    07:00 +1°C° 0 mm 4 mps 749 mmHg 79%
    08:00 +1°C° 0 mm 5 mps 749 mmHg 76%
    09:00 +2°C° 0 mm 5 mps 749 mmHg 67%
    10:00 +3°C° 0 mm 5 mps 749 mmHg 59%
    11:00 +5°C° 0 mm 5 mps 749 mmHg 51%
    12:00 +5°C° 0 mm 5 mps 749 mmHg 48%
    13:00 +6°C° 0 mm 5 mps 749 mmHg 46%
    14:00 +6°C° 0 mm 5 mps 748 mmHg 43%
    15:00 +6°C° 0 mm 5 mps 748 mmHg 44%
    16:00 +5°C° 0 mm 4 mps 748 mmHg 46%
    17:00 +5°C° 0 mm 4 mps 748 mmHg 47%
    18:00 +4°C° 0 mm 3 mps 748 mmHg 52%
    19:00 +3°C° 0 mm 3 mps 748 mmHg 57%
    20:00 +3°C° 0 mm 2 mps 748 mmHg 62%
    21:00 +3°C° 0 mm 2 mps 747 mmHg 64%
    22:00 +2°C° 0 mm 2 mps 747 mmHg 67%
    23:00 +2°C° 0 mm 2 mps 747 mmHg 69%

    25 March, Monday

    Time Temperature Precipitation Wind Pressure Humidity
    00:00 +1°C° 0 mm 2 mps 747 mmHg 71%
    01:00 +1°C° 0 mm 2 mps 746 mmHg 73%
    02:00 -1°C° 0 mm 2 mps 746 mmHg 75%
    03:00 -1°C° 0 mm 2 mps 746 mmHg 77%
    04:00 -1°C° 0 mm 2 mps 745 mmHg 78%
    05:00 -1°C° 0 mm 2 mps 745 mmHg 79%
    06:00 -1°C° 0 mm 2 mps 744 mmHg 76%
    07:00 0°C° 0 mm 3 mps 744 mmHg 74%
    08:00 0°C° 0 mm 3 mps 744 mmHg 71%
    09:00 +2°C° 0 mm 3 mps 744 mmHg 68%
    10:00 +3°C° 0 mm 3 mps 743 mmHg 65%
    11:00 +4°C° 0 mm 3 mps 743 mmHg 63%
    12:00 +4°C° 0.3 mm 3 mps 743 mmHg 64%
    13:00 +4°C° 0.3 mm 3 mps 743 mmHg 65%
    14:00 +4°C° 0.3 mm 4 mps 743 mmHg 66%
    15:00 +4°C° 0.2 mm 3 mps 742 mmHg 67%
    16:00 +4°C° 0.2 mm 3 mps 742 mmHg 67%
    17:00 +4°C° 0.2 mm 3 mps 742 mmHg 67%
    18:00 +4°C° 0 mm 2 mps 742 mmHg 72%
    19:00 +3°C° 0 mm 2 mps 742 mmHg 77%
    20:00 +2°C° 0 mm 1 mps 742 mmHg 82%
    21:00 +2°C° 0 mm 1 mps 743 mmHg 83%
    22:00 +2°C° 0 mm 1 mps 743 mmHg 84%
    23:00 +1°C° 0 mm 1 mps 743 mmHg 85%

    26 March, Tuesday

    Time Temperature Precipitation Wind Pressure Humidity
    00:00 +1°C° 0 mm 1 mps 743 mmHg 86%
    01:00 -1°C° 0 mm 2 mps 743 mmHg 86%
    02:00 -1°C° 0 mm 2 mps 744 mmHg 87%
    03:00 -1°C° 0 mm 2 mps 744 mmHg 88%
    04:00 -1°C° 0 mm 2 mps 744 mmHg 89%
    05:00 -1°C° 0 mm 2 mps 744 mmHg 90%
    06:00 -1°C° 0 mm 3 mps 745 mmHg 88%
    07:00 -2°C° 0 mm 4 mps 745 mmHg 86%
    08:00 -1°C° 0 mm 5 mps 746 mmHg 85%
    09:00 0°C° 0 mm 5 mps 746 mmHg 74%
    10:00 0°C° 0 mm 5 mps 746 mmHg 63%
    11:00 +1°C° 0 mm 5 mps 747 mmHg 52%
    12:00 +2°C° 0 mm 5 mps 747 mmHg 48%
    13:00 +2°C° 0 mm 5 mps 747 mmHg 44%
    14:00 +3°C° 0 mm 6 mps 746 mmHg 40%
    15:00 +2°C° 0 mm 6 mps 746 mmHg 46%
    16:00 +2°C° 0 mm 6 mps 746 mmHg 52%
    17:00 +1°C° 0 mm 6 mps 746 mmHg 58%
    18:00 -1°C° 0.3 mm 6 mps 746 mmHg 61%
    19:00 -2°C° 0.3 mm 6 mps 746 mmHg 65%
    20:00 -2°C° 0.3 mm 6 mps 746 mmHg 68%
    21:00 -2°C° 0 mm 5 mps 746 mmHg 67%
    22:00 -4°C° 0 mm 5 mps 747 mmHg 67%
    23:00 -4°C° 0 mm 4 mps 747 mmHg 66%

    27 March, Wednesday

    Time Temperature Precipitation Wind Pressure Humidity
    00:00 -4°C° 0 mm 4 mps 747 mmHg 68%
    01:00 -5°C° 0 mm 4 mps 748 mmHg 70%
    02:00 -5°C° 0 mm 4 mps 748 mmHg 71%
    03:00 -5°C° 0 mm 4 mps 749 mmHg 72%
    04:00 -5°C° 0 mm 4 mps 749 mmHg 73%
    05:00 -5°C° 0 mm 3 mps 750 mmHg 73%
    06:00 -4°C° 0 mm 3 mps 750 mmHg 71%
    07:00 -4°C° 0 mm 3 mps 751 mmHg 69%
    08:00 -2°C° 0 mm 3 mps 751 mmHg 67%
    09:00 -1°C° 0 mm 3 mps 752 mmHg 62%
    10:00 0°C° 0 mm 3 mps 752 mmHg 57%
    11:00 +1°C° 0 mm 3 mps 753 mmHg 51%
    12:00 +1°C° 0 mm 4 mps 753 mmHg 48%
    13:00 +1°C° 0 mm 4 mps 753 mmHg 44%
    14:00 +3°C° 0 mm 4 mps 753 mmHg 40%
    15:00 +3°C° 0 mm 4 mps 753 mmHg 41%
    16:00 +3°C° 0 mm 3 mps 753 mmHg 42%
    17:00 +3°C° 0 mm 3 mps 754 mmHg 44%
    18:00 +3°C° 0 mm 2 mps 754 mmHg 49%
    19:00 +2°C° 0 mm 2 mps 755 mmHg 53%
    20:00 +2°C° 0 mm 1 mps 755 mmHg 58%
    21:00 +2°C° 0 mm 1 mps 755 mmHg 61%
    22:00 +2°C° 0 mm 1 mps 756 mmHg 63%
    23:00 +1°C° 0 mm 0 mps 756 mmHg 66%
    Show more